OBJECT A

Satellite information

Favourite Embed

Satellite Type and Status

UNKNOWNIN ORBIT

Key statistics

Satellite OBJECT A at a glance.

Uptime

556

Days in orbit

Revolutions

≈ 15.1

Per day

Orbit

SSO

Sun Synchronous Orbit

Inclination

97.6

Latest

Satellite identification and parameters

Extended collection of information and parameters for OBJECT A.

Object identification

Identified? True

Debris? False

Object name: OBJECT A

International designator: 2024-110A

Object number (NORAD): 60012

Object ID (CCSDS): 60012

Country: PEOPLES REPUBLIC OF CHINA (PRC)

Current information (Y/N): Y

RCS size: MEDIUM

Orbital parameters

Period: 95.347 minutes

Inclination: 97.577 deg

SMA: 6913.5 km

Apoapsis: 542.058 km

Periapsis: 528.671 km

RAAN: 76.0202 deg

Eccentricy: 0.00096815

Argument of periapsis: 166.5333 deg

Mean anomaly: 193.6156 deg

Mean motion: 15.10274365 rev/day

Mean motion (dot): 0.00010072 rev/day2

B* drag term: 0.00061813265 1/REarth

Two-line elements (TLE)

Creation date: Dec. 14, 2025, 3:07 a.m.

Reference frame: TEME

Reference center: EARTH

Epoch: Dec. 13, 2025, 4:21 p.m. UTC

TLE line 0: 0 OBJECT A

TLE line 1: 1 60012U 24110A 25347.68136751 .00010072 00000-0 61813-3 0 9997

TLE line 2: 2 60012 97.5770 76.0202 0009681 166.5333 193.6156 15.10274365 83886

Live tracking on map

Real-time ground track for satellite OBJECT A.

In-orbit conjunctions

There are no conjunctions computed for OBJECT A, at the moment. Check back to stay up to date, as we update our databases every day.

Go to all conjunctions

Associated space launch

Carried 3 satellites to polar orbit, details TBD: * TEE-01B *Naxing-3A/B

OBJECT A was lifted into orbit during the mission ‘Ceres-1 | 3 satellites’, on board a Ceres-1 space rocket.

The launch took place on June 6, 2024, 5 a.m. from Launch Area 95A.

For more information about the launch, click the button.

Launch to space Ceres-1 | 3 satellites
Ceres-1 | 3 satellites

Agency: N/A

Status: Launch Successful

Launch date: June 6, 2024, 5 a.m. UTC

Rocket: Ceres-1

Launch pad: Launch Area 95A

Location: Jiuquan Satellite Launch Center, People's Republic of China

...

Latest news about this satellite

There are no fresh news available about this satellite. Check back as we update our databases every day.


Newsletter sign-up

Weekly statistics, charts and insights to help you stay on top of the space industry.